Regional Weather Roundup
Issued by NWS

Home | Current Version | Previous Version | Graphics & Text | Print | Product List | Glossary Off
Versions: 1 2 3 4 5 6 7 8 9 10 11 12 13 14 15 16 17 18 19 20 21 22 23 24 25 26 27 28 29 30 31 32 33 34 35 36 37 38 39 40 41 42 43 44 45 46 47 48 49 50

000
ASUS43 KOAX 281610
RWRNE

WEATHER ROUNDUP FOR NEBRASKA
NATIONAL WEATHER SERVICE OMAHA NE
1000 AM CST WED JAN 28 2015

NOTES: SATELLITE DATA IS BEING USED TO AUGMENT CLOUD COVER ABOVE
       12000 FEET.
       "FAIR" INDICATES FEW OR NO CLOUDS BELOW 12,000 FEET WITH NO
       SIGNIFICANT WEATHER AND/OR OBSTRUCTIONS TO VISIBILITY.

  * THESE STATIONS DO NOT REPORT WEATHER SUCH AS RAIN...SNOW OR FOG.

NEZ001>004-019>022-054>056-281700-
NEBRASKA PANHANDLE

CITY           SKY/WX    TMP DP  RH WIND       PRES   REMARKS
SCOTTSBLUFF      N/A    N/A N/A N/A MISG      29.97S
ALLIANCE       PTSUNNY   47  34  60 W23G29    29.91S
CHADRON        PTSUNNY   49  34  56 W21G28    29.90S
KIMBALL        MOSUNNY   49  30  48 NW12G22   29.98S
SIDNEY         PTSUNNY   52  31  44 NW26G37   29.97R
$$

NEZ057>060-069>072-079>082-281700-
SOUTHWEST NEBRASKA

CITY           SKY/WX    TMP DP  RH WIND       PRES   REMARKS
NORTH PLATTE   PTSUNNY   45  35  68 W10       29.86S
IMPERIAL       PTSUNNY   51  33  50 NW16G22   29.91S
LEXINGTON      PTSUNNY   46  35  65 W9        29.83S
MCCOOK         CLOUDY    51  34  52 W13       29.88S
OGALLALA       MOSUNNY   54  35  47 NW33G45   29.88F
$$

NEZ005>010-023>029-035>040-094-281700-
NORTH CENTRAL NEBRASKA

CITY           SKY/WX    TMP DP  RH WIND       PRES   REMARKS
VALENTINE      PTSUNNY   50  33  52 W16       29.78R
AINSWORTH      PTSUNNY   49  32  52 W14       29.76S
BROKEN BOW     PTSUNNY   56  34  43 W16G24    29.79F
O`NEILL        PTSUNNY   50  38  63 W8        29.73F
ORD            MOSUNNY   37  31  78 CALM      29.77F
THEDFORD       PTSUNNY   53  33  47 W18G25    29.82R
$$

NEZ041-046>049-061>064-073>077-083>087-281700-
SOUTH CENTRAL NEBRASKA

CITY           SKY/WX    TMP DP  RH WIND       PRES   REMARKS
GRAND ISLAND   MOSUNNY   37  31  78 W5        29.80F WCI  33
AURORA         MOSUNNY   36  32  85 W7        29.79S WCI  30
HASTINGS       MOSUNNY   38  31  76 W5        29.80R WCI  34
HEBRON         MOSUNNY   42  33  69 NW6       29.79S
HOLDREGE       PTSUNNY   52  33  47 NW15G21   29.83R
KEARNEY *      MOSUNNY   43  32  65 W7        29.82R
YORK           MOSUNNY   39  32  75 W9        29.80R WCI  33
$$

NEZ011>018-030>034-042>045-281700-
NORTHEAST NEBRASKA

CITY           SKY/WX    TMP DP  RH WIND       PRES   REMARKS
NORFOLK        PTSUNNY   37  31  78 S6        29.78F WCI  32
ALBION         PTSUNNY   34  30  85 CALM      29.79S
BLAIR          PTSUNNY   39  31  73 SE12      29.81F WCI  32
COLUMBUS *     PTSUNNY   36  28  75 S5        29.81F WCI  32
FREMONT        PTSUNNY   39  32  76 SE12      29.81F WCI  32
TEKAMAH        PTSUNNY   37  32  82 SE16      29.83F WCI  28
WAYNE          PTSUNNY   36  32  86 S13       29.78F WCI  27
$$

NEZ050>053-065>068-078-088>093-281700-
SOUTHEAST NEBRASKA

CITY           SKY/WX    TMP DP  RH WIND       PRES   REMARKS
LINCOLN        MOSUNNY   41  31  67 VRB3      29.81F
OMAHA EPPLEY   PTSUNNY   38  30  73 SE13      29.85S WCI  30
BEATRICE       MOSUNNY   47  34  61 S10       29.80F
FALLS CITY     SUNNY     46  34  62 SE9       29.85F
NEBRASKA CITY  MOSUNNY   41  30  65 S10       29.83F
PLATTSMOUTH    MOSUNNY   38  30  73 SE9       29.84R WCI  32
$$

NEZ044-045-051>053-067-281700-
OMAHA AREA

CITY           SKY/WX    TMP DP  RH WIND       PRES   REMARKS
OMAHA EPPLEY   PTSUNNY   38  30  73 SE13      29.85S WCI  30
BLAIR          PTSUNNY   39  31  73 SE12      29.81F WCI  32
FREMONT        PTSUNNY   39  32  76 SE12      29.81F WCI  32
MILLARD        PTSUNNY   38  32  77 SE8       29.83F WCI  33
OFFUTT AFB     PTSUNNY   39  31  73 SE13      29.84S WCI  31
PLATTSMOUTH    MOSUNNY   38  30  73 SE9       29.84R WCI  32
WAHOO          FAIR      38  32  77 SE10      29.81F WCI  31
$$



USA.gov is the U.S. government's official web portal to all federal, state and local government web resources and services.